Regional Weather Roundup
Issued by NWS Wakefield, VA

Home | Current Version | Previous Version | Graphics & Text | Print | Product List | Glossary Off
Versions: 1 2 3 4 5 6 7 8 9 10 11 12 13 14 15 16 17 18 19 20 21 22 23 24 25 26 27 28 29 30 31 32 33 34 35 36 37 38 39 40 41 42 43 44 45 46 47 48 49 50

000
ASUS41 KAKQ 290314
RWRAKQ

REGIONAL WEATHER ROUNDUP
NATIONAL WEATHER SERVICE WAKEFIELD VA
1100 PM EDT SAT MAR 28 2015

Note: "fair" indicates few or no clouds below 12,000 feet with no
significant weather and/or obstructions to visibility. * = Denotes
station may not report precipitation (e.g., rain,snow,etc.),
thunder or fog.

VAZ042-051-052>054-056-290400-
NORTHERN VIRGINIA

CITY           SKY/WX    TMP DP  RH WIND       PRES   REMARKS
WASH NATIONAL  PTCLDY    32   7  35 NW13G18   30.24R WCI  22
DULLES         CLEAR     28   7  41 NW9       30.24R
FORT BELVOIR   CLEAR     30   6  37 NW12      30.25R WCI  20
QUANTICO       CLEAR     31   6  35 N12       30.27R WCI  22
FREDERICKSBRG* CLEAR     31  10  41 CALM      30.26R
STAFFORD*      CLEAR     26   8  46 NW6       30.30R
WARRENTON      CLEAR     26  18  71 CALM      30.24R
CULPEPER*      CLEAR     28  10  47 CALM      30.26R
MANASSAS*      CLEAR     27  12  54 NW5       30.25R
LEESBURG*      CLEAR     30  12  47 NW10      30.24R WCI  21
WINCHESTER     CLEAR     30   3  31 NW12G17   30.22R WCI  21
FRONT ROYAL*   FAIR      28   9  43 NW3       30.22R
LURAY*         FAIR      30  12  47 NW5       30.22R
$$

VAZ048-049-060>072-079>083-290400-
CENTRAL AND SOUTH CENTRAL VIRGINIA

CITY           SKY/WX    TMP DP  RH WIND       PRES   REMARKS
RICHMOND       CLEAR     31   9  39 N7        30.26R
CHESTERFIELD*  NOT AVBL
PETERSBURG*    CLEAR     32   8  36 N5        30.27R
HANOVER        CLEAR     28   8  43 NW3       30.27R
TAPPAHANNOCK*  CLEAR     30   6  35 W3        30.25S
QUINTON*       FAIR      28   9  43 NW3       30.26R
CHARLOTTSVILLE CLEAR     29   8  41 NW5       30.24R
GORDONSVILLE*  FAIR      29   8  41 CALM      30.24R
ORANGE*        CLEAR     30  12  47 SW5       30.26R
LOUISA*        CLEAR     25  14  63 W3        30.23R
BUMPASS*       FAIR      26  11  53 CALM      30.25R
FARMVILLE*     CLEAR     31  10  40 CALM      30.26R
CREWE*         FAIR      29   8  40 MISG      30.26R
FORT PICKETT*  FAIR      29   9  42 N5        30.25R
CHASE CITY*    FAIR      32  15  49 CALM      30.26R
CLARKSVILLE*   FAIR      32  12  43 N8        30.24R
SOUTH HILL*    CLEAR     28  13  52 N3        30.31R
LAWRENCEVILLE* FAIR      29  14  53 CALM      30.25R
EMPORIA*       CLEAR     28  19  69 CALM      30.27R
$$

VAZ088>098-290400-
SOUTHEAST VIRGINIA

CITY           SKY/WX    TMP DP  RH WIND       PRES   REMARKS
NORFOLK        CLEAR     33   8  35 N16G28    30.23R WCI  23
VIRGINIA BEACH CLEAR     35  10  35 NW18G29   30.23R WCI  24
NORFOLK NAVAL  NOT AVBL
WEST POINT*    CLEAR     32   6  33 NW6       30.27R
SALUDA*        CLOUDY    32  13  46 NW9       30.24R
NEWPORT NEWS   CLEAR     33  10  38 N6        30.25
LANGLEY AFB    CLEAR     31   8  36 N9        30.24R
FORT EUSTIS    CLEAR     33  11  41 N12G17    30.23R WCI  24
WILLIAMSBURG*  CLEAR     30  14  51 N6        30.26R
HR EXEC AP*    FAIR      34   9  35 N7        30.26R
FRANKLIN*      CLEAR     31  11  43 N5        30.26R
WAKEFIELD      CLEAR     30   9  41 CALM      30.26R
$$

VAZ020-022-025-037-045-290400-
WEST CENTRAL AND SOUTHWEST VIRGINIA

CITY           SKY/WX    TMP DP  RH WIND       PRES   REMARKS
STAUNTON*      CLEAR     26   8  46 W3        30.24R
WAYNESBORO*    FAIR      24   6  46 NW3       30.21R
HOT SPRINGS VA CLEAR     16   5  63 NW20G26   30.05R WCI  -1
LYNCHBURG      CLEAR     28   8  43 CALM      30.26R
DANVILLE       CLEAR     33  11  39 N7        30.27R
SOUTH BOSTON*  FAIR      29   9  43 NW6       30.27R
MARTINSVILLE   CLEAR     27  12  53 CALM      30.28R
ROANOKE        CLEAR     29   5  36 NW12      30.26R WCI  19
BLACKSBURG     CLEAR     25   5  42 NW10G16   30.23R WCI  15
DUBLIN*        CLEAR     28   8  44 NW5       30.22R
MARION*        CLEAR     28   4  36 W7        30.22R
HILLSVILLE*    CLEAR     26   7  45 NW18      30.16R WCI  12
RICHLANDS*     FAIR      25   5  42 NW7       30.21R
WISE*          CLEAR     28   9  43 NW3       30.23R
ABINGDON*      CLEAR     32   7  35 NW3       30.24R
$$

MDZ021>025-VAZ099-100-290400-
SOUTHERN MARYLAND AND THE DELMARVA PENINSULA

CITY           SKY/WX    TMP DP  RH WIND       PRES   REMARKS
PATUXENT RIVER PTCLDY    31   9  39 NW18      30.22R WCI  19
BAY BRIDGE APT   N/A     32  12  43 W14G20    30.21R WCI  22
LEONARDTOWN    FAIR      30   9  40 NW3       30.24R
DOVER          CLEAR     29  18  61 W10       30.17R WCI  20
GEORGETOWN     CLEAR     30  15  53 VRB7      30.18R
EASTON         FAIR      32  15  49 NW10      30.24R WCI  23
CAMBRIDGE      CLEAR     32  12  43 NW13      30.20S WCI  22
SALISBURY      CLEAR     30  11  45 NW8       30.19R
OCEAN CITY     PTCLDY    29  16  58 NW8       30.19R
WALLOPS ISLAND PTCLDY    31  12  45 N16G22    30.21R WCI  20
ACCOMACK*      CLOUDY    32  12  43 NW17G29   30.21R WCI  21
$$

NCZ012>017-030>032-290400-
NORTH CENTRAL AND EASTERN NORTH CAROLINA

CITY           SKY/WX    TMP DP  RH WIND       PRES   REMARKS
ROANOKE RAPIDS FAIR      32  14  47 N12       30.25R WCI  23
RALEIGH        CLEAR     34  10  37 CALM      30.25R
ELIZABETH CITY CLEAR     34  20  56 N16       30.23R WCI  24
AHOSKIE*       CLEAR     32  16  52 N3        30.25R
EDENTON*       CLEAR     34  21  59 N15       30.23R WCI  24
CURRITUCK*     CLEAR     35  13  41 N10G16    30.23R
KILL DEVIL HLS CLEAR     36  21  53 N10G18    30.20R
MANTEO         CLEAR     38  21  50 NE18G25   30.20R
CAPE HATTERAS  CLEAR     39  21  48 VRB6      30.19S
TARBORO*       FAIR      36  15  42 N8        30.25R
GOLDSBORO      CLEAR     38  19  47 N8        30.22R
WASHINGTON     CLEAR     35  20  55 NW3       30.22R
GREENVILLE     CLEAR     36  18  48 NW3       30.24R
NEW BERN       CLEAR     38  21  50 N9        30.23R
WILMINGTON     CLEAR     41  24  51 CALM      30.21R
$$

VAZ048-290400-
ELSEWHERE

CITY           SKY/WX    TMP DP  RH WIND       PRES   REMARKS
HARRISBURG PA  PTCLDY    28   3  34 N9        30.20R
BALTIMORE      PTCLDY    28   9  44 W8        30.20R
ANNAPOLIS      CLEAR     30  11  45 W8        30.21R
ANDREWS AFB    CLEAR     29   7  38 NW15      30.21R WCI  18
PHILADELPHIA   PTCLDY    30   6  36 NW22G28   30.17R WCI  17
HENDERSON NC   CLEAR     32   7  34 NW6       30.25R
GREENSBORO     CLEAR     32   8  36 N6        30.24R
ROCKY MOUNT    CLEAR     36  13  38 NW9       30.24
$$

VAZ100-290400-
MARINE

STATION/POSITION TIME  TEMP    WIND        PRES    WAVE   SWELL
                       AIR SEA DIR/SP/G            HT/PER HT/PER
                 (UTC) (F)     (DEG/KT/KT) (MB)    (FT/S) (FT/S)
BRANDYWINE LGT   0212   32 39  320/ 22/ 25 1020.8R
CAPE MAY NJ      0200   33 44  290/  7/ 21 1020.2R
LEWES DE         0212   33 42  300/ 18/ 23 1021.0R
15NM E FENWICK I 0250   33 40              1020.3R   5/ 5
OCEAN-CITY-INLET 0212   31 41  310/  8/ 11 1021.3R
WACHAPREAGUE VA  0200   33 47  310/  4/ 10 1022.4R
THOMAS POINT MD  0300                        N/A
COVE POINT MD    0200   31     330/ 11/ 18 1022.8R
SOLOMONS ISLAND  0200      43                N/A
BISHOPS HEAD MD  0200          330/ 17/ 20 1022.4R
PINEY POINT MD   0206          360/ 17/ 18   N/A
CAMBRIDGE MD     0200   33 44  300/ 16/ 22 1022.5R
LEWISETTA VA     0200   34 45              1023.3R
RAPPAHANNOCK LGT 0200          300/ 23/ 27 1023.3R
STINGRAY PT      0300   34 44  330/ 19/ 23   N/A     2/ 2
YORK RVR RNG VA  0200   34     330/ 20/ 25 1023.0R
YORKTOWN VA      0200   34 46  330/ 15/ 18 1023.5R
DOMINION TERM VA 0200   35     350/  8/ 16 1023.6R
KIPTOPEKE VA     0200      48  330/ 23/ 27   N/A
CHES BAY BRIDGE  0206   35 44  320/ 23/ 28 1022.9R
CAPE HENRY VA    0200   35     320/ 24/ 29 1021.5R
CHESAPEAKE LGHT  0200   35     330/ 21/ 24 1022.7R
WILLOUBY STN VA  0200   34     340/ 18/ 21 1024.0R
S CRANEY ISL VA  0200          350/ 14/ 18 1023.4R
CAPE HENRY BUOY  0228      40                N/A     5/ 5   2/11
1ST LANDING BUOY 0300   35     330/ 23/ 29 1023.1R   3/ 3
OFFSHORE WE BUOY 0211      40                N/A     5/ 6   2/ 9
64NM E OF VA BCH 0250   38 56  330/ 21/ 29 1021.6R   6/ 6
DUCK PIER NC     0200   39 42  320/ 12/ 15 1021.1R
44056 DUCK FRF   0211      41                N/A     4/ 6   2/11
OREGON INLET NC  0200   37 46  340/  7/ 12 1022.0R
HATTERAS NC      0200   42 54  340/ 17/ 19 1022.5R
CAPE LOOKOUT NC  0300   43     360/ 11/ 13 1022.3R
$$


USA.gov is the U.S. government's official web portal to all federal, state and local government web resources and services.